Printer-friendly version

IAU Minor Planet Center

Minor Planet Center

MPEC 2008-V05 : 2008 UZ201

The following Minor Planet Electronic Circular may be linked-to from your own Web pages, but must not otherwise be redistributed electronically.


Read MPEC 2008-V04 Read MPEC 2008-V06


M.P.E.C. 2008-V05                                Issued 2008 Nov. 3, 14:16 UT

     The Minor Planet Electronic Circulars contain information on unusual
         minor planets and routine data on comets.  They are published
   on behalf of Commission 20 of the International Astronomical Union by the
          Minor Planet Center, Smithsonian Astrophysical Observatory,
                          Cambridge, MA 02138, U.S.A.

             Prepared using the Tamkin Foundation Computer Network

                              MPC@CFA.HARVARD.EDU
          URL http://www.cfa.harvard.edu/iau/mpc.html  ISSN 1523-6714

                                  2008 UZ201

Observations:
     K08UK1Z  C2008 10 25.01248 03 36 04.59 +08 36 18.7          20.5 R EV005461
     K08UK1Z* C2008 10 25.01358 03 36 04.62 +08 36 20.3          20.5 R EV005461
     K08UK1Z  C2008 10 25.01797 03 36 04.61 +08 36 24.0                 EV005461
     K08UK1Z  C2008 10 25.02016 03 36 04.62 +08 36 25.9                 EV005461
     K08UK1Z  C2008 10 25.02235 03 36 04.61 +08 36 28.2                 EV005461
     K08UK1Z  C2008 10 25.02674 03 36 04.62 +08 36 32.2                 EV005461
     K08UK1Z  C2008 10 25.02784 03 36 04.62 +08 36 33.2                 EV005461
     K08UK1Z  C2008 10 29.98689 03 36 16.86 +09 50 25.7          20   R EV005461
     K08UK1Z  C2008 10 29.98782 03 36 16.83 +09 50 26.9          20   R EV005461
     K08UK1Z  C2008 10 29.99306 03 36 16.74 +09 50 31.3                 EV005461
     K08UK1Z  C2008 10 29.99686 03 36 16.68 +09 50 34.9                 EV005461
     K08UK1Z  C2008 10 29.99805 03 36 16.68 +09 50 35.9                 EV005461
     K08UK1Z  C2008 10 30.00554 03 36 16.58 +09 50 42.1                 EV005461
     K08UK1Z  C2008 10 30.00856 03 36 16.55 +09 50 45.1                 EV005461
     K08UK1Z  C2008 10 30.06658 03 36 15.75 +09 51 35.2                 EV005461
     K08UK1Z  C2008 10 30.06751 03 36 15.74 +09 51 36.5                 EV005461
     K08UK1Z  C2008 11 02.26733 03 35 50.89 +10 36 58.5          19.4 V EV005G96
     K08UK1Z  C2008 11 02.27787 03 35 50.67 +10 37 07.7          19.3 V EV005G96
     K08UK1Z  C2008 11 02.28508 03 35 49.96 +10 37 09.9          19.3 R EV005H36
     K08UK1Z  C2008 11 02.28839 03 35 50.42 +10 37 16.7          19.7 V EV005G96
     K08UK1Z  C2008 11 02.29066 03 35 50.38 +10 37 18.7                 EV005701
     K08UK1Z  C2008 11 02.29250 03 35 49.81 +10 37 16.6          19.4 R EV005H36
     K08UK1Z  C2008 11 02.29580 03 35 50.26 +10 37 22.8          20.2 V EV005291
     K08UK1Z  C2008 11 02.29890 03 35 50.17 +10 37 25.5          19.9 V EV005G96
     K08UK1Z  C2008 11 02.29991 03 35 49.63 +10 37 22.8          19.7 R EV005H36
     K08UK1Z  C2008 11 02.30132 03 35 50.12 +10 37 27.7          20.3 V EV005291
     K08UK1Z  C2008 11 02.30703 03 35 49.99 +10 37 32.4          20.5 V EV005291
     K08UK1Z  C2008 11 02.33509 03 35 49.32 +10 37 56.3                 EV005701
     K08UK1Z  C2008 11 02.35733 03 35 48.82 +10 38 14.2                 EV005701
     K08UK1Z  C2008 11 02.54096 03 35 45.73 +10 41 11.9          20.5 V EV005F85
     K08UK1Z  C2008 11 02.56543 03 35 45.13 +10 41 31.5          20.7 V EV005F85
     K08UK1Z 4C2008 11 03.28883 03 35 39.18 +10 51 05.5          19.9 R EV005F65
     K08UK1Z 4C2008 11 03.30666 03 35 38.83 +10 51 20.5          19.8 R EV005F65
     K08UK1Z 4C2008 11 03.31843 03 35 38.59 +10 51 30.5          19.6 R EV005F65

Observer details:
291 LPL/Spacewatch II.  Observer M. T. Read.  1.8-m f/2.7 reflector + CCD.
461 University of Szeged, Piszkesteto Stn. (Konkoly).  Observers K. Sarneczky,
    A. Karpati.  0.60-m Schmidt + CCD.
701 Junk Bond Observatory, Sierra Vista.  Observer D. Healy.  0.81-m f/4.4
    Ritchey-Chretien + CCD.
F65 Haleakala-Faulkes Telescope North.  Observer J. Bedient.  2.0-m
    Ritchey-Chretien + CCD.
F85 Tiki Observatory, Punaauia.  Observer N. Teamo.  0.41-m f/8.0
    Ritchey-Chretien + 3056x3056 CCD.
G96 Mt. Lemmon Survey.  Observer R. A. Kowalski.  Measurers E. C. Beshore,
    A. Boattini, G. J. Garradd, A. R. Gibbs, A. D. Grauer, R. E. Hill,
    R. A. Kowalski, S. M. Larson, R. H. McNaught.  1.5-m reflector + CCD.
H36 Sandlot Observatory, Scranton.  Observer G. Hug.  0.56-m reflector + CCD.

Orbital elements:
2008 UZ201                                               Earth MOID = 0.1701 AU
Epoch 2008 Nov. 30.0 TT = JDT 2454800.5                 MPC
M  19.47561              (2000.0)            P               Q
n   0.27561785     Peri.  282.87265     +0.99633622     -0.06817455
a   2.3384665      Node    81.05377     +0.08328548     +0.91065275
e   0.5021874      Incl.    2.99638     -0.01943361     +0.40750927
P   3.58           H   21.7           G   0.15           U   6
Residuals in seconds of arc
081025 461  0.3-  0.3-    081030 461  0.0   0.3-    081102 H36  0.4-  0.3-
081025 461  0.1+  0.3+    081030 461  0.2+  0.1+    081102 291  0.2-  0.2+
081025 461  0.0   0.1-    081030 461  0.0   0.4+    081102 291  0.2-  0.1+
081025 461  0.1+  0.2-    081030 461  0.0   0.9+    081102 701  0.1+  0.3+
081025 461  0.0   0.1+    081102 G96  0.4+  0.2-    081102 701  0.4+  0.2-
081025 461  0.1+  0.1+    081102 G96  0.6+  0.1+    081102 F85  0.5+  0.1-
081025 461  0.1+  0.1+    081102 H36  0.4-  0.8-    081102 F85  0.4-  0.2-
081029 461  0.3+  0.5-    081102 G96  0.4+  0.3+    081103 F65  0.1-  0.2+
081029 461  0.0   0.1-    081102 701  0.7+  0.2-    081103 F65  0.2-  0.1+
081029 461  0.2-  0.3-    081102 H36  0.2-  0.3-    081103 F65  0.1-  0.1+
081029 461  0.3-  0.0     081102 291  0.0   0.1-
081029 461  0.1-  0.0     081102 G96  0.2+  0.2+

Ephemeris:
2008 UZ201               a,e,i = 2.34, 0.50, 3                   q = 1.1641
Date    TT    R. A. (2000) Decl.     Delta      r     Elong.  Phase     V
2008 10 31    03 36.18   +10 05.3    0.268    1.249   161.4    14.7    20.1
2008 11 10    03 33.70   +12 18.6    0.305    1.293   170.8     7.0    20.2
2008 11 20    03 30.40   +14 12.8    0.355    1.342   173.8     4.6    20.5
2008 11 30    03 28.45   +15 50.0    0.420    1.396   165.4    10.3    21.2
2008 12 10    03 29.23   +17 14.3    0.499    1.455   156.0    16.0    21.9

Timothy B. Spahr             (C) Copyright 2008 MPC           M.P.E.C. 2008-V05

Read MPEC 2008-V04 Read MPEC 2008-V06


Our Web policy. Index to the CBAT/MPC/ICQ pages.


Valid HTML 4.01!